Location: Sternwarte Stuttgart
(48.7824°N, 9.1965°E)
Time: 13:24:40
(UTC+00:00)

ISS - Pass Details

Date: 25 April 2025
Orbit: 416 x 420 km, 51.6° (Epoch: 15 May)

Event Time Altitude Azimuth Distance (km) Brightness Sun altitude
Exits shadow 01:44:51 19° 126° (SE) 1,061 -1.7 -20.3°
Drops below altitude 10° 01:46:49 10° 91° (E) 1,494 -0.5 -20.1°
Sets 01:49:17 0° 74° (ENE) 2,362 0.9 -19.9°
